[[{"header":{"parameterUnit":"m.s-1","parameterCategory":1,"la1":30.2991,"la2":30.254,"lo1":-89.0895,"lo2":-89.0444,"dy":0.0017,"dx":0.0017,"nx":28,"ny":28,"refTime":"2026-01-31T09:00:00:Z","depth":0,"parameterNumber":2,"parameterNumberName":"U-component_of_WINDS"},"data":[0,0,0,0,0,0,0,0,0,0,0,0,0,0,0,0,0,0,0,0,0,0,0,0,0,0,0,0,0,0,0,0,0,0,0,0,0,0,0,0,0,0,0,0,0,0,0,0,0,0,0,0,0,0,0,0,0,0,3.077,3.077,0,3.0809,3.0809,3.081,3.078,3.0778,3.0777,3.0776,3.0814,3.0816,3.0819,0,0,0,0,0,0,0,0,0,0,0,0,0,3.0668,3.067,3.077,3.077,3.0771,3.0809,3.0809,3.081,3.078,3.0778,3.0777,3.0775,3.0814,3.0816,3.0819,0,0,0,0,0,0,0,0,0,0,0,0,0,3.071,3.0671,3.0769,3.076,3.076,3.0809,3.0809,3.081,3.078,3.0778,3.0776,3.0774,3.0813,3.0816,3.0819,3.0879,0,0,3.0829,3.0831,0,0,0,0,0,0,0,0,3.0708,3.0714,3.0761,3.0761,3.0761,3.0787,3.0788,3.0833,3.0781,3.0772,3.0776,3.0773,3.0807,3.0811,3.0822,3.0881,3.0882,3.083,3.0832,3.0833,3.0834,0,0,0,0,0,0,0,3.0705,3.0712,3.0785,3.0762,3.0761,3.0754,3.0758,3.0796,3.08,3.0773,3.0771,3.0776,3.0806,3.0819,3.0823,3.0883,3.083,3.0833,3.0835,3.0836,3.0994,3.0997,0,0,0,0,0,0,3.0703,3.071,3.0784,3.0786,3.0729,3.0757,3.0762,3.0781,3.0799,3.08,3.0778,3.0774,3.0814,3.0819,3.0824,3.0896,3.0833,3.0836,3.0838,3.0992,3.0995,3.0997,0,0,0,0,0,0,3.0701,3.071,3.0782,3.0748,3.0756,3.0761,3.0783,3.0783,3.0795,3.0803,3.0803,3.079,3.0813,3.0819,3.0866,3.0897,3.0838,3.0841,3.099,3.0993,3.0996,3.104,0,0,0,0,0,0,3.0698,3.0709,3.0732,3.0748,3.0758,3.0824,3.0785,3.0785,3.0801,3.0797,3.0815,3.0816,3.0812,3.0861,3.0869,3.09,3.0844,3.0987,3.0991,3.0995,3.1036,3.1044,3.1052,0,0,0,0,0,3.0695,3.0742,3.0733,3.0742,3.0787,3.0825,3.0831,3.0826,3.0804,3.0827,3.0832,3.0815,3.0893,3.0866,3.0875,3.0908,3.0985,3.099,3.0995,3.1032,3.1043,3.1052,0,0,0,0,0,0,3.0728,3.0744,3.0734,3.0788,3.0806,3.082,3.0849,3.0837,3.0861,3.0856,3.0849,3.0853,3.0902,3.091,3.088,3.0968,3.0935,3.0942,3.0961,3.0971,3.0978,3.0975,3.0846,0,0,0,0,0,3.0742,3.0772,3.0785,3.0831,3.0841,3.0844,3.086,3.0855,3.0873,3.088,3.0888,3.0906,3.0934,3.0953,3.0979,3.1037,3.1041,3.1064,3.1072,3.1079,3.1085,3.1117,3.1128,3.1014,3.1014,3.1013,0,0,3.077,3.0783,3.0802,3.0838,3.0851,3.0883,3.085,3.0884,3.0908,3.0885,3.093,3.0937,3.0956,3.1009,3.1033,3.1017,3.1117,3.1085,3.109,3.1092,3.1123,3.1134,3.1144,3.1017,3.1016,3.1016,0,0,3.0838,3.0851,3.0891,3.0906,3.0926,3.0928,3.0938,3.0955,3.096,3.1005,3.0989,3.1017,3.1065,3.108,3.1094,3.1171,3.1156,3.118,3.1221,3.1252,3.1261,3.1269,3.1297,3.1307,3.1186,3.1186,3.1186,0,3.087,3.0918,3.0913,3.095,3.0967,3.0949,3.099,3.1004,3.1032,3.1044,3.1026,3.1089,3.11,3.1157,3.1176,3.1188,3.1199,3.1177,3.1261,3.1269,3.1276,3.1302,3.1313,3.1188,3.1188,3.1188,3.1188,0,3.0957,3.0991,3.1021,3.105,3.107,3.1109,3.1111,3.1132,3.1126,3.113,3.1177,3.1191,3.122,3.1234,3.1228,3.129,3.128,3.1262,3.1229,3.129,3.1314,3.1324,3.1192,3.1191,3.1191,3.119,0,0,3.1045,3.1073,3.1084,3.1097,3.112,3.1146,3.1185,3.1215,3.1233,3.1254,3.1286,3.1329,3.1313,3.1329,3.1325,3.1353,3.1414,3.1331,3.1332,3.1346,3.1485,3.1498,3.151,3.1405,3.1407,3.1408,3.1483,0,3.1114,3.1182,3.118,3.1243,3.1274,3.1259,3.1293,3.1311,3.1316,3.1344,3.135,3.1381,3.1357,3.1366,3.1394,3.1401,3.1441,3.1395,3.1435,3.1436,3.143,3.1522,3.1536,3.1606,3.1493,3.1494,3.1495,0,3.1203,3.1228,3.1295,3.1315,3.1328,3.1358,3.1386,3.1413,3.1433,3.1436,3.1455,3.1447,3.1487,3.1454,3.1509,3.1478,3.1494,3.15,3.1503,3.1506,3.1469,3.1527,3.1628,3.1638,3.151,3.1509,3.1508,0,3.1261,3.1311,3.1358,3.137,3.1394,3.1416,3.1427,3.1446,3.1465,3.149,3.1502,3.1531,3.1547,3.157,3.157,3.1546,3.1626,3.1593,3.1629,3.1629,3.1645,3.1644,3.1749,3.1657,3.1657,3.1656,3.1656,0,3.1337,3.1379,3.1384,3.1413,3.1459,3.1457,3.1503,3.1512,3.1529,3.156,3.1548,3.1577,3.1576,3.1606,3.1606,3.1652,3.1659,3.1662,3.1662,3.1663,3.1663,3.1673,3.1668,3.1659,3.1659,3.1658,3.1658,0,3.1409,3.1414,3.1464,3.1484,3.149,3.1523,3.154,3.1568,3.1573,3.1612,3.1621,3.163,3.1664,3.1667,3.1706,3.1707,3.1763,3.1757,3.1756,3.1755,3.179,3.1787,3.1905,3.1921,3.1819,3.182,3.1821,0,3.1457,3.1489,3.1513,3.1533,3.1546,3.1578,3.1597,3.1598,3.1619,3.1646,3.167,3.1704,3.173,3.1786,3.1796,3.1826,3.1821,3.1861,3.1825,3.1826,3.1822,3.182,3.1823,3.1867,3.1868,3.1869,3.187,0,3.1543,3.1544,3.1573,3.1604,3.1628,3.1652,3.1675,3.1692,3.1695,3.1719,3.1755,3.1775,3.1817,3.185,3.1881,3.1892,3.1882,3.1881,3.1891,3.1892,3.189,3.1892,3.1774,3.1878,3.1877,3.1877,3.1876,3.1876,3.1604,3.1632,3.1654,3.1687,3.1704,3.1726,3.1753,3.1763,3.1793,3.1827,3.1826,3.1865,3.1887,3.1927,3.1941,3.1972,3.1959,3.1973,3.1976,3.198,3.1984,3.1886,3.1977,3.1977,3.1977,3.1977,3.1977,0,3.1689,3.1703,3.1733,3.1766,3.1793,3.1782,3.1807,3.183,3.1865,3.1886,3.1913,3.1955,3.1988,3.2001,3.2034,3.2056,3.2052,3.2065,3.2063,3.2066,3.1993,3.1982,3.2067,3.2067,3.2067,3.2067,3.2067,3.2067,3.1736,3.1783,3.1788,3.1844,3.1857,3.1897,3.1912,3.1932,3.1949,3.1997,3.2025,3.2034,3.2052,3.2086,3.2117,3.212,3.2132,3.2147,3.2148,3.208,3.207,3.2062,3.2051,3.2149,3.215,3.2217,3.2218,3.2218]},{"header":{"parameterUnit":"m.s-1","parameterCategory":1,"la1":30.2991,"la2":30.254,"lo1":-89.0895,"lo2":-89.0444,"dy":0.0017,"dx":0.0017,"nx":28,"ny":28,"refTime":"2026-01-31T09:00:00:Z","depth":0,"parameterNumber":3,"parameterNumberName":"V-component_of_WINDS"},"data":[0,0,0,0,0,0,0,0,0,0,0,0,0,0,0,0,0,0,0,0,0,0,0,0,0,0,0,0,0,0,0,0,0,0,0,0,0,0,0,0,0,0,0,0,0,0,0,0,0,0,0,0,0,0,0,0,0,0,-8.5459,-8.5461,0,-8.5666,-8.5668,-8.5671,-8.5606,-8.5602,-8.5597,-8.5593,-8.5798,-8.5808,-8.5817,0,0,0,0,0,0,0,0,0,0,0,0,0,-8.5001,-8.501,-8.5458,-8.5461,-8.5464,-8.5665,-8.5668,-8.5671,-8.5607,-8.5602,-8.5596,-8.5591,-8.5795,-8.5806,-8.5818,0,0,0,0,0,0,0,0,0,0,0,0,0,-8.5203,-8.5013,-8.5458,-8.5456,-8.5458,-8.5665,-8.5668,-8.5672,-8.5608,-8.5601,-8.5595,-8.5589,-8.5792,-8.5805,-8.5819,-8.6039,0,0,-8.5863,-8.5869,0,0,0,0,0,0,0,0,-8.5192,-8.522,-8.5454,-8.5457,-8.5459,-8.5604,-8.5582,-8.5795,-8.561,-8.5551,-8.5593,-8.5586,-8.5738,-8.5757,-8.581,-8.6048,-8.6057,-8.5864,-8.5873,-8.5879,-8.5883,0,0,0,0,0,0,0,-8.5178,-8.5211,-8.554,-8.5457,-8.5461,-8.5443,-8.5465,-8.5622,-8.5678,-8.5556,-8.5551,-8.5577,-8.5738,-8.5796,-8.5814,-8.606,-8.5864,-8.5877,-8.5885,-8.5891,-8.6489,-8.6496,0,0,0,0,0,0,-8.5163,-8.52,-8.5534,-8.5546,-8.5307,-8.5457,-8.5481,-8.5564,-8.5677,-8.5688,-8.5583,-8.5573,-8.5775,-8.5797,-8.5821,-8.6086,-8.5879,-8.5892,-8.5901,-8.6482,-8.6491,-8.6499,0,0,0,0,0,0,-8.5154,-8.5194,-8.5525,-8.5372,-8.5413,-8.5472,-8.5565,-8.5571,-8.5629,-8.5697,-8.5706,-8.5631,-8.5771,-8.5801,-8.5986,-8.6092,-8.5899,-8.5912,-8.6473,-8.6485,-8.6495,-8.6616,0,0,0,0,0,0,-8.5141,-8.5191,-8.5276,-8.5375,-8.5422,-8.5689,-8.5572,-8.558,-8.5654,-8.5644,-8.5745,-8.5756,-8.5768,-8.5965,-8.6,-8.6108,-8.5923,-8.6464,-8.6478,-8.6491,-8.6603,-8.663,-8.6653,0,0,0,0,0,-8.5125,-8.53,-8.528,-8.5321,-8.553,-8.5695,-8.5722,-8.5734,-8.5663,-8.5749,-8.5793,-8.5753,-8.6075,-8.5984,-8.6023,-8.6137,-8.6457,-8.6474,-8.649,-8.6592,-8.6625,-8.6653,0,0,0,0,0,0,-8.5209,-8.5313,-8.5292,-8.5505,-8.5592,-8.5684,-8.5792,-8.5768,-8.5875,-8.5861,-8.5869,-8.5893,-8.6083,-8.6128,-8.6026,-8.6355,-8.6255,-8.628,-8.6319,-8.6351,-8.6376,-8.6361,-8.5935,0,0,0,0,0,-8.5253,-8.5381,-8.5464,-8.5643,-8.5688,-8.5733,-8.5805,-8.5808,-8.5897,-8.5933,-8.599,-8.6077,-8.6197,-8.6276,-8.6391,-8.6609,-8.663,-8.6707,-8.6732,-8.6752,-8.6774,-8.6893,-8.6928,-8.6553,-8.6553,-8.6552,0,0,-8.5344,-8.5417,-8.5496,-8.5662,-8.573,-8.5861,-8.5764,-8.5906,-8.6003,-8.5953,-8.6133,-8.6178,-8.6275,-8.6478,-8.657,-8.6521,-8.6882,-8.6773,-8.6789,-8.6799,-8.6913,-8.6949,-8.6981,-8.6564,-8.6562,-8.656,0,0,-8.5577,-8.5645,-8.5803,-8.5873,-8.5978,-8.6007,-8.6045,-8.6141,-8.617,-8.6351,-8.6317,-8.6431,-8.6638,-8.6709,-8.6772,-8.7034,-8.7001,-8.7071,-8.7202,-8.7318,-8.7348,-8.7374,-8.7468,-8.7501,-8.7092,-8.7092,-8.7093,0,-8.5676,-8.5874,-8.5886,-8.6033,-8.6106,-8.6071,-8.623,-8.6297,-8.6433,-8.6484,-8.6428,-8.6689,-8.6752,-8.6971,-8.7035,-8.7087,-8.713,-8.7059,-8.7343,-8.7369,-8.7394,-8.7483,-8.7519,-8.71,-8.7099,-8.7098,-8.7098,0,-8.5991,-8.6129,-8.6244,-8.6379,-8.6466,-8.6617,-8.6651,-8.6737,-8.6732,-8.6766,-8.695,-8.7024,-8.7154,-8.7206,-8.7201,-8.7425,-8.7392,-8.734,-8.7239,-8.7437,-8.7522,-8.7556,-8.7111,-8.7109,-8.7106,-8.7104,0,0,-8.6283,-8.6425,-8.6467,-8.6528,-8.6642,-8.6747,-8.6897,-8.7027,-8.71,-8.7195,-8.732,-8.7498,-8.7451,-8.7523,-8.7525,-8.7628,-8.7831,-8.7563,-8.7565,-8.761,-8.8083,-8.8122,-8.8162,-8.781,-8.7816,-8.7822,-8.8075,0,-8.6526,-8.6792,-8.6808,-8.7049,-8.7176,-8.7144,-8.7275,-8.7358,-8.7394,-8.7505,-8.7544,-8.767,-8.7598,-8.7641,-8.7741,-8.7785,-8.7926,-8.7767,-8.7925,-8.7931,-8.7903,-8.8205,-8.8247,-8.8482,-8.8108,-8.8113,-8.8117,0,-8.6845,-8.6953,-8.7207,-8.7304,-8.7358,-8.7476,-8.7596,-8.7704,-8.7797,-8.7815,-8.7897,-8.7886,-8.8038,-8.7933,-8.8142,-8.8033,-8.8099,-8.813,-8.814,-8.8155,-8.8036,-8.8229,-8.8558,-8.8593,-8.8169,-8.8165,-8.8161,0,-8.7033,-8.7241,-8.7421,-8.7474,-8.7592,-8.7675,-8.7727,-8.7814,-8.7892,-8.7996,-8.8046,-8.8166,-8.8232,-8.8324,-8.8345,-8.8266,-8.8554,-8.845,-8.8573,-8.8573,-8.8635,-8.8631,-8.8979,-8.8677,-8.8677,-8.8676,-8.8675,0,-8.7302,-8.7459,-8.7507,-8.7618,-8.7792,-8.7808,-8.798,-8.8026,-8.8104,-8.8222,-8.8201,-8.8311,-8.8332,-8.8447,-8.8463,-8.8634,-8.8664,-8.8682,-8.8685,-8.8685,-8.8683,-8.8728,-8.8712,-8.8685,-8.8683,-8.8682,-8.868,0,-8.7542,-8.758,-8.7774,-8.787,-8.7898,-8.8023,-8.8104,-8.8209,-8.8243,-8.8393,-8.8428,-8.8481,-8.8615,-8.8645,-8.8803,-8.8815,-8.9018,-8.9004,-8.8987,-8.8986,-8.9108,-8.9096,-8.9498,-8.9551,-8.9214,-8.9217,-8.922,0,-8.7712,-8.7832,-8.7942,-8.8021,-8.8078,-8.8205,-8.8285,-8.8305,-8.8388,-8.8504,-8.8595,-8.8727,-8.8834,-8.9049,-8.91,-8.9221,-8.921,-8.9343,-8.9228,-8.9225,-8.9213,-8.9206,-8.9218,-8.9364,-8.9368,-8.9371,-8.9373,0,-8.801,-8.8023,-8.814,-8.8265,-8.8361,-8.8459,-8.8553,-8.8618,-8.865,-8.8745,-8.8884,-8.8967,-8.913,-8.9261,-8.9383,-8.9434,-8.941,-8.9409,-8.9444,-8.9445,-8.9431,-8.9441,-8.9047,-8.94,-8.9397,-8.9395,-8.9394,-8.9393,-8.822,-8.8326,-8.8421,-8.8552,-8.8625,-8.8714,-8.8818,-8.8866,-8.8983,-8.9119,-8.9123,-8.9274,-8.9364,-8.9525,-8.9584,-8.9701,-8.966,-8.971,-8.9723,-8.9735,-8.9747,-8.9413,-8.9723,-8.9722,-8.9722,-8.9721,-8.972,0,-8.8517,-8.8577,-8.8698,-8.8831,-8.8934,-8.8905,-8.9007,-8.9095,-8.9229,-8.9316,-8.9423,-8.9581,-8.9709,-8.9771,-8.9897,-8.9978,-8.997,-9.0011,-9.0005,-9.0017,-8.9776,-8.9734,-9.0015,-9.0015,-9.0015,-9.0015,-9.0015,-9.0015,-8.8684,-8.8863,-8.8888,-8.9102,-8.916,-8.931,-8.9371,-8.9452,-8.9522,-8.9701,-8.9808,-8.9849,-8.9926,-9.0058,-9.0173,-9.0187,-9.0235,-9.0281,-9.029,-9.0064,-9.0034,-9.0005,-8.9966,-9.0291,-9.0291,-9.0521,-9.0524,-9.0525]}]]